This is the latest recevied weather packets stored in our database for station/object LU3HGB-WX. If no packets are shown the sender has not sent any weather packets the latest 10 day(s).
| Time | Temp. | Humidity | Pressure | Rain* | Wind** | Luminosity | Snow |
|---|---|---|---|---|---|---|---|
| 1778141860 | 12.78° C | 62% | 1009 hPa | 0 mm | - | 0 W/m² | - |
| 1778141559 | 12.78° C | 57% | 1009 hPa | 0 mm | - | 0 W/m² | - |
| 1778141260 | 12.78° C | 56% | 1009 hPa | 0 mm | - | 0 W/m² | - |
| 1778140960 | 12.78° C | 52% | 1008 hPa | 0 mm | - | 0 W/m² | - |
| 1778140659 | 12.78° C | 57% | 1008 hPa | 0 mm | - | 0 W/m² | - |
| 1778140359 | 12.78° C | 50% | 1008 hPa | 0 mm | - | 0 W/m² | - |
| 1778140060 | 12.22° C | 53% | 1008 hPa | 0 mm | - | 0 W/m² | - |
| 1778139759 | 11.67° C | 63% | 1008 hPa | 0 mm | - | 0 W/m² | - |
| 1778139459 | 11.11° C | 69% | 1008 hPa | 0 mm | - | 0 W/m² | - |
| 1778139160 | 11.11° C | 68% | 1008 hPa | 0 mm | - | 0 W/m² | - |
| 1778138859 | 11.11° C | 74% | 1008 hPa | 0 mm | - | 0 W/m² | - |
| 1778138560 | 11.11° C | 70% | 1008 hPa | 0 mm | - | 0 W/m² | - |
| 1778138261 | 11.11° C | 71% | 1008 hPa | 0 mm | - | 0 W/m² | - |
| 1778137960 | 11.11° C | 82% | 1008 hPa | 0 mm | - | 0 W/m² | - |
| 1778137659 | 11.67° C | 83% | 1008 hPa | 0 mm | - | 0 W/m² | - |
| 1778137359 | 12.22° C | 81% | 1008 hPa | 0 mm | - | 0 W/m² | - |
| 1778137059 | 12.22° C | 80% | 1008 hPa | 0 mm | - | 0 W/m² | - |
| 1778136759 | 12.22° C | 84% | 1008 hPa | 0 mm | - | 0 W/m² | - |
| 1778136460 | 12.22° C | 90% | 1008 hPa | 0 mm | - | 0 W/m² | - |
| 1778136160 | 12.22° C | 89% | 1008 hPa | 0 mm | - | 0 W/m² | - |
| 1778135860 | 12.22° C | 87% | 1008 hPa | 0 mm | - | 0 W/m² | - |
| 1778135560 | 12.22° C | 88% | 1008 hPa | 0 mm | - | 0 W/m² | - |
| 1778135259 | 12.22° C | 89% | 1008 hPa | 0 mm | - | 0 W/m² | - |
| 1778134960 | 12.22° C | 88% | 1008 hPa | 0 mm | - | 0 W/m² | - |
| 1778134659 | 12.22° C | 87% | 1008 hPa | 0 mm | - | 0 W/m² | - |
* Rain latest hour (hover to see other rain measurements)
** Current wind speed in m/s (hover to see current wind gust speed)